Dewpoint
70 72 73 75 75 75 75 75 75 75 75 74 74 74 74 73 73 73 73 73 73 73 73 73 72 72 72 72 73 72 73 72 72 72 72 73 72 72 72 72 71 71 71 71 71 71 69 68 69 69 69 70 70 71 71 70 69 68 68 68 67 67 67 67 67 66 65 65 66 66 65 64 64 63 63 64 63 62 63 63 65 65 66 66 66
70 73 74 74 75 75 75 75 75 75 75 74 74 74 74 73 73 73 73 73 73 73 73 73 73 73 73 73 73 73 73 73 73 72 72 72 72 72 72 72 72 72 72 72 72 69 69 68 68 69 72 72 72 71 70 69 68 68 68 68 67 68 69 68 67 66 66 66 65 68 67 64 63 63 63 63 62 62 62 61 65 65 66 67 68
71 73 74 74 75 75 75 75 75 75 74 74 74 74 74 73 73 73 73 73 73 73 73 73 73 73 73 72 73 73 73 73 73 73 72 72 72 71 72 73 72 73 72 72 71 70 70 69 69 69 69 70 71 70 69 68 68 67 67 68 67 66 67 68 66 66 66 66 66 67 68 66 64 63 63 63 63 62 61 63 65 66 66 68 67
71 72 73 74 75 75 75 75 75 75 74 74 74 74 74 74 73 73 73 74 73 73 73 73 73 73 73 72 72 72 73 73 73 72 72 72 72 71 72 72 72 72 71 71 70 70 70 69 69 68 68 68 69 69 68 68 69 69 69 68 68 69 68 67 66 66 66 66 66 66 66 65 64 64 63 63 62 62 62 63 64 66 66 67 67
72 73 73 74 74 75 75 75 74 74 74 74 74 74 74 74 74 74 74 73 73 73 73 73 73 73 72 72 72 72 72 72 73 72 72 72 72 71 71 71 70 70 70 70 70 70 69 68 68 68 68 68 68 68 68 68 68 69 69 69 69 68 68 67 67 67 66 66 65 64 62 63 63 64 63 63 62 63 61 63 64 64 65 65 65
71 72 73 73 74 74 74 74 74 74 74 74 74 73 74 74 74 74 73 73 73 73 73 73 72 72 72 72 72 72 72 71 71 71 72 71 72 71 70 70 70 69 69 69 69 69 69 69 68 68 68 68 69 68 68 68 68 68 69 69 68 68 68 68 67 66 66 67 69 67 60 60 62 64 65 63 63 63 62 62 63 64 63 64 64
71 71 72 73 73 74 74 74 74 74 74 74 74 74 74 74 74 74 73 73 73 73 73 72 72 72 72 72 71 71 71 71 71 71 71 72 72 71 70 70 70 69 69 68 68 69 69 68 68 68 67 68 68 67 68 68 68 69 69 68 68 68 68 67 68 67 68 69 67 66 61 61 63 62 65 64 64 65 63 61 60 63 63 63 63
70 70 71 73 73 74 74 74 74 74 74 74 74 73 74 73 74 74 73 73 73 73 72 72 72 72 72 72 71 71 71 71 71 71 72 73 73 72 71 69 70 69 69 68 68 69 68 68 68 68 68 68 68 67 67 68 68 68 68 68 68 68 67 68 67 67 68 67 67 63 60 61 63 64 65 64 63 63 63 63 63 62 62 62 63
69 69 71 73 73 74 74 74 74 74 74 73 73 74 73 74 74 73 73 73 73 72 72 72 72 72 72 71 71 71 71 71 71 71 71 71 71 72 71 71 70 70 71 72 71 69 68 68 68 69 69 67 67 67 68 67 68 68 68 67 68 68 68 68 68 69 68 67 61 61 61 61 63 64 65 64 64 63 63 62 62 63 63 62 62
68 70 72 73 73 74 74 74 74 74 73 73 73 73 73 74 73 73 73 73 73 72 72 72 72 72 72 71 71 71 71 71 71 71 70 69 69 70 71 71 70 68 69 68 68 68 68 69 69 69 68 67 68 67 68 68 68 68 68 68 66 68 68 69 70 68 65 60 60 61 63 65 63 65 65 64 63 63 63 63 62 61 60 63 63
69 70 72 73 73 73 73 74 74 74 73 73 73 73 74 74 74 73 73 73 72 72 72 72 72 72 72 71 72 71 72 72 71 70 70 70 70 70 69 69 70 70 69 69 68 68 68 69 69 68 69 69 68 68 69 69 69 69 69 69 69 69 69 69 69 67 65 62 62 63 64 66 63 64 66 64 63 63 62 62 62 62 61 61 61
69 70 72 73 74 73 73 74 74 73 73 73 73 73 74 74 73 73 73 73 72 72 72 72 72 72 72 72 72 71 72 71 71 71 71 71 70 69 69 69 69 69 69 69 69 69 69 70 68 69 69 69 69 68 68 69 68 69 69 69 69 69 69 69 68 66 61 61 61 61 61 62 63 63 65 65 64 63 62 62 63 63 62 63 62
69 71 72 73 73 73 73 73 73 73 73 73 73 74 73 74 73 73 73 73 73 72 72 72 72 72 72 71 71 71 71 72 71 71 71 71 70 69 70 69 69 69 70 69 68 70 70 69 69 70 70 70 69 68 68 68 68 69 69 68 69 69 70 70 67 66 60 61 61 62 62 63 63 66 65 64 64 63 63 62 62 61 61 62 62
70 71 72 72 73 74 73 73 73 73 73 73 73 73 73 73 73 73 73 72 72 72 72 72 72 72 71 71 71 71 71 71 72 71 71 71 71 70 69 69 70 71 71 71 70 69 70 69 69 69 69 69 69 68 68 68 68 69 69 68 69 70 70 69 68 62 62 62 63 63 64 65 65 66 66 64 62 62 62 62 62 62 62 61 61
70 71 71 72 72 73 74 73 73 73 73 73 73 73 73 73 73 72 73 73 72 72 72 71 71 71 71 71 71 71 71 71 72 72 71 71 71 70 70 70 70 70 70 70 70 70 70 69 69 69 69 69 69 68 68 68 68 68 68 69 70 70 70 69 68 62 62 62 63 63 64 65 67 65 64 65 64 62 61 61 61 62 61 61 61
70 70 71 71 72 72 72 73 73 73 73 73 73 73 73 72 72 73 73 72 72 72 71 71 71 71 71 71 71 71 71 71 71 71 71 70 70 70 70 69 70 69 70 70 70 70 70 69 69 69 69 69 68 68 68 68 68 68 69 68 70 70 70 71 68 62 62 62 62 64 64 65 67 65 64 63 64 64 63 62 62 62 62 61 62
70 70 70 71 71 70 70 71 72 72 72 72 73 72 72 72 72 72 72 72 71 71 71 71 71 71 71 71 71 71 71 70 70 70 70 70 70 70 69 69 69 69 69 69 69 69 69 69 69 68 69 68 68 68 68 67 68 68 68 68 69 70 70 71 69 65 62 63 63 63 64 64 65 66 65 64 64 64 63 63 63 63 62 61 61
69 69 70 69 70 70 70 70 70 71 71 71 72 72 72 72 72 72 72 71 70 71 71 71 71 71 71 71 71 71 70 70 70 70 70 70 70 70 69 69 69 69 68 68 67 67 68 67 68 68 68 68 68 67 68 67 67 68 69 69 69 69 70 71 67 62 62 64 62 64 64 67 66 64 64 64 64 64 63 62 62 61 61 61 61
68 68 68 68 68 68 68 68 69 70 71 71 71 71 71 72 72 71 70 70 69 70 71 71 71 71 71 71 71 70 70 70 70 70 70 70 70 69 69 69 68 68 68 67 67 67 67 68 68 68 68 67 67 66 67 68 67 67 68 68 69 69 71 70 63 62 63 63 63 63 63 66 66 65 64 64 64 64 63 62 61 61 61 62 62
67 68 67 67 68 68 68 68 69 70 70 70 70 71 71 71 71 70 70 69 69 69 71 71 71 71 71 71 70 70 69 69 70 69 70 70 70 69 69 68 68 68 68 67 67 67 67 67 67 67 67 67 67 68 67 68 68 68 68 68 68 69 68 68 63 62 63 63 64 63 65 67 66 64 64 64 63 63 64 64 63 61 61 62 62
68 68 68 67 67 67 68 68 69 69 69 69 69 69 70 71 70 70 70 70 69 69 70 71 71 71 70 70 69 67 68 68 68 69 70 70 70 69 69 68 68 67 67 67 67 66 67 67 66 67 67 67 68 68 68 68 68 68 68 68 69 67 67 64 63 64 64 64 65 64 67 65 65 64 64 64 64 64 63 63 63 63 63 63 62
67 67 67 68 67 68 68 68 68 69 69 68 68 69 69 69 69 69 69 69 69 70 70 70 71 70 69 68 67 68 66 66 66 70 69 70 69 69 68 68 68 67 67 67 67 66 66 66 66 66 66 66 67 65 66 68 68 67 68 68 67 65 67 63 63 63 64 64 65 66 67 66 64 63 63 63 63 63 64 65 65 64 63 63 63
65 66 67 68 68 67 68 67 68 68 68 68 68 69 68 68 68 67 68 69 70 70 69 70 69 68 68 67 67 67 67 67 68 68 68 70 69 69 69 68 67 67 67 66 66 66 66 66 66 66 66 67 65 65 64 63 65 68 68 66 64 65 65 63 63 64 64 65 65 67 67 66 64 63 63 63 63 64 64 65 65 64 63 63 62
65 66 66 67 67 67 67 68 68 68 68 67 68 67 67 67 68 68 68 69 69 69 68 68 68 68 67 67 67 67 68 68 69 68 70 69 68 69 69 68 68 67 67 67 66 66 66 67 66 66 67 67 62 61 61 60 62 63 64 64 64 64 64 62 63 63 65 66 65 67 66 65 65 64 63 63 63 63 63 64 65 63 63 63 63
65 66 66 67 67 67 67 68 68 68 67 67 67 67 67 67 68 68 67 67 68 67 67 68 68 67 67 67 67 67 67 67 68 68 68 68 68 68 68 68 67 67 67 66 66 66 66 65 64 64 64 63 62 61 61 61 62 63 63 63 63 64 63 63 63 64 64 65 66 67 67 67 66 64 63 62 63 64 64 64 63 64 63 63 63
65 65 65 67 67 67 67 68 68 67 67 67 67 68 67 67 67 67 67 68 68 67 68 68 67 67 67 68 67 66 67 67 67 67 67 68 68 68 67 67 66 67 68 67 66 65 65 65 64 64 64 62 62 62 61 62 60 62 61 62 63 63 63 63 64 65 66 66 67 68 68 67 66 64 63 63 63 63 64 64 64 63 63 63 63
65 65 66 66 66 66 67 68 67 67 67 67 67 68 67 67 67 67 67 67 67 67 68 68 68 67 67 67 65 65 66 65 66 66 66 67 67 67 66 66 66 66 66 66 65 65 65 66 65 65 64 64 63 63 61 59 61 61 61 62 63 62 63 64 64 65 66 66 68 68 67 67 66 64 64 63 63 64 64 64 64 64 63 63 63
65 65 65 66 66 66 67 67 68 67 67 67 67 67 67 67 68 68 68 70 68 68 68 68 68 68 68 67 67 65 66 66 65 66 66 67 66 66 66 66 66 66 66 66 65 65 65 66 65 65 64 64 63 62 61 59 59 60 60 63 63 63 63 65 64 65 66 66 66 67 67 67 67 66 63 63 63 64 63 63 63 64 64 63 63
64 65 66 66 66 67 67 67 68 67 67 67 67 67 67 67 68 67 67 69 68 68 68 68 68 68 67 67 67 65 65 65 65 66 66 66 66 66 66 66 66 66 66 65 65 64 65 65 64 65 65 65 64 63 61 59 58 58 62 63 64 63 63 64 66 65 66 66 66 68 68 67 67 66 64 63 64 63 63 62 61 64 64 64 63
64 65 65 66 66 67 67 67 67 67 67 67 66 66 67 67 67 67 68 68 67 68 67 67 68 68 67 67 67 65 65 64 65 65 65 65 66 66 66 66 65 66 66 65 65 65 64 64 64 66 66 65 65 63 61 59 57 60 62 62 64 64 64 65 64 64 64 66 66 67 68 68 67 67 66 64 63 63 63 62 60 63 65 65 64
63 64 65 66 67 67 67 67 67 67 66 66 66 66 67 67 67 68 68 67 68 68 67 67 67 68 67 66 66 65 65 64 63 65 65 66 66 65 64 65 65 65 66 65 66 65 65 64 64 64 64 64 65 64 61 59 60 61 64 62 64 65 65 65 67 66 65 66 66 65 67 68 68 68 68 67 65 64 63 63 61 61 65 65 65
63 64 65 66 66 67 67 67 67 67 66 66 67 66 67 67 67 67 67 67 67 67 67 66 67 67 66 65 64 65 64 64 65 65 65 66 65 65 65 64 65 64 65 65 66 66 65 65 65 65 65 65 65 63 62 60 60 62 63 64 65 65 65 65 67 65 66 66 65 65 65 66 68 68 68 67 68 66 62 62 63 61 61 64 65
64 64 65 66 66 66 66 66 67 67 66 66 66 66 67 66 67 66 67 67 67 66 66 66 66 67 66 65 65 65 65 64 65 65 66 65 64 64 65 65 65 65 65 66 67 65 65 65 64 65 65 65 64 63 62 61 60 60 61 64 65 65 65 66 65 65 65 65 65 65 65 66 66 67 67 67 67 67 66 63 62 62 61 63 62
64 64 65 65 66 66 66 66 66 66 66 66 66 66 66 66 66 66 67 67 66 66 66 66 67 66 66 65 65 65 66 66 65 64 64 64 65 64 64 65 66 66 66 66 66 66 65 64 63 64 66 64 63 63 63 63 62 63 63 65 65 64 65 65 65 64 65 65 64 64 64 64 64 65 66 67 67 66 66 66 62 62 62 61 61
63 63 64 65 66 66 66 66 66 66 66 66 66 66 65 65 65 66 66 66 66 65 66 66 66 66 66 64 64 64 65 66 66 65 65 64 64 63 64 65 66 65 65 65 65 65 65 65 64 64 64 64 64 64 63 63 63 62 63 64 65 65 65 64 65 65 65 65 65 66 65 64 63 64 65 64 67 67 66 66 63 63 62 61 61
63 63 64 65 65 66 66 66 66 66 66 66 65 65 65 65 65 67 66 66 66 66 66 65 65 65 66 65 65 65 66 66 66 66 65 64 64 64 64 64 65 65 65 65 64 64 65 65 64 64 63 63 64 63 63 63 63 62 63 63 64 65 64 64 65 64 65 65 65 65 66 65 65 64 66 63 63 65 67 67 66 66 63 62 61
63 64 64 64 65 65 66 65 65 65 65 65 65 65 64 64 65 66 66 66 65 66 66 65 66 65 66 65 65 65 65 66 65 65 64 64 64 64 64 64 65 64 64 64 64 64 64 64 64 64 64 63 64 63 63 63 63 63 63 63 64 64 64 64 64 65 64 64 64 64 65 65 66 69 64 64 63 64 67 68 67 68 67 67 66
64 64 64 64 64 64 64 65 64 65 66 65 65 65 65 65 65 65 67 65 65 64 64 64 65 64 64 64 66 66 65 66 65 65 65 65 64 64 64 64 64 64 63 63 63 64 64 64 64 64 64 64 63 63 62 63 63 63 63 63 64 64 64 64 64 65 64 64 63 64 64 64 64 64 64 64 64 64 64 66 67 67 67 67 67
64 64 63 65 64 64 64 65 64 65 65 66 66 66 65 65 65 65 65 64 64 64 64 64 64 64 64 65 65 65 66 65 65 65 64 64 64 63 63 63 64 63 63 62 62 63 63 63 64 63 64 65 63 62 62 62 62 61 61 63 64 63 63 64 64 64 64 64 64 64 64 64 64 64 64 64 64 64 64 64 65 64 65 67 66
64 64 64 64 64 63 63 63 63 64 65 66 66 65 65 64 64 64 63 63 63 63 63 63 63 64 65 65 66 66 66 65 64 63 63 63 63 62 62 63 63 63 63 62 62 63 63 63 63 64 64 64 63 63 62 61 61 61 61 62 62 63 63 63 63 63 63 64 63 63 63 63 63 64 64 64 64 63 64 64 65 65 65 66 66
63 62 62 64 64 63 63 63 64 64 63 64 65 64 64 64 64 63 62 62 60 61 62 62 63 64 64 64 66 66 66 66 64 63 63 65 63 62 62 63 63 63 62 62 62 63 63 63 63 63 63 62 62 62 62 61 59 59 60 61 62 63 62 63 63 63 64 63 62 63 64 63 63 63 63 64 64 63 63 64 64 65 63 64 65
61 61 62 63 62 62 62 63 64 63 63 64 65 64 63 63 63 62 61 60 60 60 60 61 63 64 64 64 65 65 65 65 65 64 64 63 62 62 62 62 63 63 62 63 63 64 63 63 62 61 61 61 60 61 61 59 57 57 58 58 60 61 61 62 62 62 63 63 62 62 63 63 63 63 63 63 63 64 64 64 64 65 65 64 64
61 62 62 62 62 62 63 63 63 63 62 62 64 63 63 63 62 60 59 58 59 60 60 62 63 62 63 64 65 64 64 64 65 65 64 63 63 62 63 63 63 63 62 62 63 62 62 63 62 61 60 60 61 62 61 59 58 58 58 57 55 55 57 60 61 62 63 63 62 62 63 64 63 63 63 62 62 63 64 63 64 65 65 63 60
61 61 61 62 62 63 63 63 63 63 63 63 64 63 63 64 62 62 59 57 57 60 61 62 62 62 62 63 63 64 64 64 64 64 64 64 63 63 63 64 64 64 63 62 62 62 61 61 61 61 60 60 59 60 61 60 59 58 53 54 55 54 53 55 58 60 62 62 62 62 62 62 62 63 63 62 62 62 63 64 64 64 63 63 61
60 60 60 61 62 63 63 62 63 65 63 63 63 63 60 59 59 58 58 57 57 57 58 59 61 62 61 61 62 63 64 64 63 64 64 64 63 63 63 63 63 63 63 62 61 62 62 61 61 60 60 59 58 59 60 60 60 60 57 54 52 52 52 55 57 58 60 61 61 61 63 61 62 62 61 61 62 62 62 63 61 61 58 56 55
59 60 61 62 63 63 63 63 64 63 62 62 62 63 60 57 56 55 55 56 55 54 55 56 59 60 60 60 61 62 63 63 63 63 63 63 62 62 62 63 62 63 63 62 62 63 63 62 62 61 60 59 59 60 59 61 61 61 60 58 56 53 55 56 55 53 59 61 61 61 61 61 60 61 60 60 61 61 62 58 58 56 56 55 54
59 60 62 62 63 63 63 63 63 62 62 62 62 62 61 57 55 55 55 54 55 57 57 56 57 58 59 59 58 59 60 61 61 62 62 62 62 61 61 62 62 62 63 62 62 62 63 63 63 62 61 60 59 58 59 59 58 59 61 61 61 60 58 56 54 55 54 57 59 59 59 62 61 60 60 61 60 59 54 55 55 55 56 56 54
60 61 61 62 62 62 63 64 63 62 62 61 62 63 60 56 55 55 56 56 56 55 57 56 57 57 56 58 58 59 59 58 57 57 59 61 60 60 61 62 63 63 63 62 62 63 63 63 63 63 62 61 60 59 59 59 57 57 60 59 59 60 61 58 56 54 54 53 54 58 58 60 59 59 60 59 59 55 52 50 49 49 50 51 51
60 60 61 61 62 62 63 63 63 62 62 62 61 62 62 58 55 56 59 58 57 56 56 56 56 57 56 56 56 58 59 59 59 58 59 60 61 60 60 59 60 60 61 61 62 63 62 63 63 62 62 61 60 59 59 58 58 58 57 57 59 60 59 59 58 55 53 53 53 54 54 57 56 57 58 58 54 54 51 50 49 48 49 48 49
60 61 61 61 62 61 62 62 61 61 61 61 61 61 61 60 60 58 56 56 55 54 55 55 55 55 55 58 58 57 57 59 60 58 57 59 58 59 58 59 58 59 60 59 61 61 61 62 62 61 61 61 60 60 59 59 59 59 59 58 58 57 57 57 57 56 54 54 52 52 53 52 51 51 53 49 48 50 50 49 47 46 46 46 45
60 61 61 61 61 61 61 61 61 61 61 60 60 60 60 60 60 56 55 55 55 54 54 54 56 58 57 57 57 57 58 57 59 58 58 59 59 59 58 58 59 60 59 58 58 60 60 61 61 61 61 61 60 61 60 59 60 59 59 59 58 57 56 55 56 55 54 52 51 50 50 49 47 47 48 48 46 47 48 49 47 46 45 45 45